Regional Weather Roundup
Issued by NWS

Home | Current Version | Previous Version | Graphics & Text | Print | Product List | Glossary On
Versions: 1 2 3 4 5 6 7 8 9 10 11 12 13 14 15 16 17 18 19 20 21 22 23 24 25 26 27 28 29 30 31 32 33 34 35 36 37 38 39 40 41 42 43 44 45 46 47 48 49 50
000
ASUS43 KBIS 171210
RWRND

NORTH DAKOTA REGIONAL WEATHER ROUNDUP
NATIONAL WEATHER SERVICE BISMARCK ND
600 AM CST SUN DEC 17 2017

NOTE: "FAIR" INDICATES FEW OR NO CLOUDS BELOW 12,000 FEET WITH NO
SIGNIFICANT WEATHER AND/OR OBSTRUCTIONS TO VISIBILITY.


NDZ001>003-009>011-017-171300-
NORTHWEST NORTH DAKOTA

CITY           SKY/WX    TMP DP  RH WIND       PRES   REMARKS
WILLISTON      CLEAR     18  16  92 S5        29.97F WCI  11
6HR MIN TEMP:  14; 6HR MAX TEMP:  23;

MINOT          CLEAR     22  16  78 SW13      29.96F WCI  10
MINOT AFB      CLEAR     19  14  81 SW9       29.95F WCI   8
$$

NDZ018>021-031>035-040>046-171300-
SOUTHWEST NORTH DAKOTA

CITY           SKY/WX    TMP DP  RH WIND       PRES   REMARKS
BISMARCK       CLOUDY    21  16  81 SW3       30.03S
6HR MIN TEMP:  21; 6HR MAX TEMP:  27;

DICKINSON      CLEAR     16  14  92 W5        29.97F WCI   9
GARRISON         N/A     21  17  84 NW8       29.98F WCI  11
6HR MIN TEMP:  18; 6HR MAX TEMP:  27;

HETTINGER ARPT CLOUDY    17  14  88 CALM      30.01F
$$

NDZ004>008-012>016-024-026-027-054-171300-
NORTHEAST NORTH DAKOTA

CITY           SKY/WX    TMP DP  RH WIND       PRES   REMARKS
GRAND FORKS    CLEAR     11   9  92 S6        30.00F WCI   1
GRND FRKS AFB  CLEAR     14  12  91 S6        29.99S WCI   5
DEVILS LAKE    CLEAR     18  15  88 SW7       29.98S WCI   9
$$

NDZ022-023-025-028>030-036>039-047>053-171300-
SOUTHEAST NORTH DAKOTA

CITY           SKY/WX    TMP DP  RH WIND       PRES   REMARKS
FARGO          PTCLDY    21  20  96 CALM      30.04S FOG
6HR MIN TEMP:  21; 6HR MAX TEMP:  26;

JAMESTOWN      CLOUDY    22  21  96 W5        30.00F WCI  16
$$





USA.gov is the U.S. government's official web portal to all federal, state and local government web resources and services.